Location: Austin
(30.3000°N, 97.7500°W)
Time: 05:43:57
(UTC-06:00)

CZ-3C R/B - Pass Details

Date: 03 March 2026
Orbit: 291 x 30789 km, 20.3° (Epoch: 5 March)

Event Time Altitude Azimuth Distance (km) Brightness Sun altitude
Rises 20:23:15 0° 245° (WSW) 2,304 5.4 -24.9°
Reaches altitude 10° 20:24:46 10° 229° (SW) 1,771 4.4 -25.2°
Enters shadow 20:27:47 27° 170° (S) 1,685 3.6 -25.9°
